Theta_e
308 308 308 309 309 309 309 309 310 310 311 312 313 313 314 315 315 317 317 314 315 312 312 314 315 316 317 319 318 317 317 317 317 317 318 318 318 316 316 317 316 315 316 313 312
308 308 308 308 309 309 309 309 309 310 310 311 313 314 315 315 317 318 315 312 313 312 314 315 316 315 317 319 319 318 318 317 315 316 317 318 318 318 317 317 316 315 314 312 313
307 308 308 308 309 309 309 310 310 309 310 311 312 314 315 315 319 315 313 313 313 313 313 314 315 316 316 317 318 318 317 315 314 315 317 318 317 317 317 317 317 316 316 312 312
308 309 309 309 309 310 310 310 310 311 310 311 313 314 315 317 316 315 311 314 313 312 314 315 316 316 316 316 317 317 316 315 316 315 316 317 317 317 316 317 313 313 312 312 312
312 312 312 312 311 311 311 311 311 313 313 312 314 316 317 318 317 314 311 312 313 312 315 316 316 316 316 315 316 316 317 316 317 316 316 316 316 316 316 313 311 310 310 311 310
315 314 314 315 314 314 314 313 313 314 316 316 316 317 318 318 316 315 313 311 314 314 314 315 316 315 315 315 316 316 316 316 316 316 315 315 316 314 314 312 311 310 310 309 307
316 316 316 315 315 315 315 314 314 315 316 317 317 317 318 319 317 316 315 313 312 313 315 314 314 314 315 316 315 315 316 318 318 317 316 315 316 315 313 312 311 310 309 307 306
318 318 317 316 316 315 314 314 314 315 317 317 318 317 319 316 318 316 315 313 312 311 313 313 313 315 315 314 315 317 317 321 319 316 315 315 321 316 312 312 313 311 310 308 306
321 319 318 317 317 316 315 314 314 316 317 316 317 317 319 313 315 317 314 314 312 311 311 311 314 315 314 316 319 318 321 321 321 316 315 316 321 314 311 312 313 312 310 308 306
324 323 321 318 318 316 315 314 316 317 316 316 316 318 317 316 312 315 313 313 313 313 313 314 315 317 316 318 321 321 322 320 320 318 315 317 318 315 312 312 313 313 310 308 306
324 324 323 322 318 317 316 318 320 321 317 319 319 318 316 309 310 313 313 313 314 315 318 316 318 319 319 318 319 320 320 321 320 317 316 318 319 319 314 312 314 312 310 308 306
323 323 323 323 319 318 317 318 319 315 319 318 318 317 315 311 313 312 311 315 315 318 317 315 318 318 319 318 319 319 319 320 320 318 314 317 319 318 317 313 313 312 310 307 304
318 319 323 324 320 318 319 319 316 314 320 319 318 318 318 312 316 315 312 315 316 318 317 319 320 317 318 316 317 318 319 319 319 318 315 316 319 319 318 313 309 308 308 305 304
313 315 321 323 318 317 318 319 316 315 325 325 320 319 315 316 317 316 312 314 314 317 318 317 318 315 317 316 316 318 318 317 317 317 320 318 323 322 321 311 308 307 305 304 303
314 312 318 322 318 318 319 319 318 317 331 324 319 311 313 317 315 312 310 311 316 315 315 318 315 315 316 317 315 318 315 315 316 318 320 321 321 321 318 314 311 307 305 303 301
311 314 315 320 317 319 319 319 317 324 328 326 317 318 317 317 313 310 310 310 312 316 315 315 312 314 316 314 314 314 315 315 315 318 324 322 323 324 320 316 314 308 305 302 300
313 317 317 320 319 319 318 317 324 323 323 325 321 317 320 319 316 313 313 314 317 317 318 317 316 314 313 315 312 315 317 323 326 323 324 318 324 323 318 312 313 307 304 301 299
314 315 318 319 320 320 318 322 321 324 324 316 317 316 322 320 318 315 316 317 316 318 321 324 324 317 314 317 319 316 318 326 332 329 325 312 319 321 310 309 309 306 304 301 298
314 316 317 317 319 318 320 325 322 323 321 319 316 321 322 319 318 317 318 320 319 317 321 324 324 316 316 315 318 318 320 319 321 313 320 320 317 312 308 307 307 305 303 301 297
316 316 315 316 317 317 322 323 320 321 320 317 322 321 325 322 318 317 320 319 320 318 317 322 325 315 313 311 313 317 316 318 322 328 329 324 322 321 311 309 307 305 303 301 298
316 316 316 316 316 317 321 321 320 319 319 316 321 323 323 324 319 319 322 321 318 318 316 319 321 315 311 314 317 314 316 317 319 321 326 327 322 316 316 311 307 306 303 301 298
314 316 316 315 317 319 319 317 317 319 319 318 319 321 324 322 319 320 322 322 314 315 317 318 321 326 316 312 312 316 317 317 321 321 319 321 323 310 311 312 308 306 303 301 298
312 315 314 315 319 319 318 318 318 318 319 319 320 320 320 319 318 318 319 318 312 314 318 318 317 326 322 315 310 312 314 315 316 320 324 324 322 307 307 309 308 307 304 302 299
310 315 314 311 316 317 318 318 318 317 318 319 319 319 320 321 318 320 318 317 312 313 313 315 316 323 328 322 317 315 314 313 316 320 321 321 320 310 309 309 307 307 304 302 299
307 311 310 314 313 314 316 314 317 319 318 318 320 320 320 320 320 320 319 314 309 310 311 315 315 317 320 318 312 315 316 314 314 316 320 320 319 316 311 310 308 306 305 303 300
307 307 305 308 308 312 314 314 315 316 316 317 318 318 318 319 319 320 319 317 315 309 311 311 316 316 319 319 316 314 313 315 314 314 315 316 318 311 312 309 308 307 305 303 301
303 300 303 307 309 310 311 313 313 313 311 311 313 316 316 314 310 307 307 307 308 309 311 310 312 314 320 314 310 313 313 313 314 313 314 316 315 309 307 308 309 307 305 303 302
Wind_Speed
2 2 3 2 2 3 4 5 6 7 9 10 11 13 14 15 15 7 4 2 2 3 3 2 2 1 1 2 1 2 4 5 3 5 5 5 7 4 1 3 2 2 4 5 5
3 3 3 4 4 4 5 6 7 8 8 10 11 13 15 16 10 7 5 3 3 4 2 5 4 4 2 1 1 3 4 1 1 2 4 7 4 5 5 8 7 5 6 6 4
5 5 5 5 6 6 6 6 7 8 9 10 12 13 14 13 6 3 2 3 4 3 1 2 2 3 3 2 2 1 5 3 4 2 2 5 5 3 7 9 3 3 5 5 4
7 7 7 6 7 8 8 8 9 9 10 11 12 13 12 4 5 2 2 5 4 3 3 3 3 3 4 5 2 6 3 2 1 2 3 6 3 6 7 2 5 5 4 3 4
7 6 7 7 7 8 9 9 9 10 11 10 10 12 5 5 4 1 3 5 5 5 4 3 5 3 7 3 3 7 3 3 4 4 6 3 9 9 7 4 3 4 4 4 4
8 7 7 7 7 8 9 9 9 10 11 11 10 8 5 9 2 3 5 5 4 5 5 5 3 3 4 3 6 4 4 6 6 10 8 8 10 2 5 6 5 5 4 4 4
9 8 8 8 8 8 9 9 9 10 11 10 8 4 6 10 3 5 6 3 4 4 5 4 3 5 1 3 1 3 7 10 12 13 9 8 10 12 9 9 8 6 5 3 4
10 10 9 9 8 8 9 9 9 9 10 7 4 3 7 5 4 7 7 3 4 2 1 2 2 1 3 2 3 5 5 9 6 8 4 9 11 9 10 10 9 6 5 3 3
12 12 11 10 10 10 9 9 10 9 7 4 1 4 7 1 4 8 7 5 7 5 3 4 3 2 4 6 7 9 11 10 6 11 6 12 6 9 10 11 10 8 6 4 4
13 13 12 11 10 10 10 9 10 9 2 2 2 3 7 2 4 7 7 10 4 9 6 6 6 8 9 10 11 11 14 11 12 7 10 11 15 10 10 13 13 10 8 7 5
14 14 13 13 11 10 8 5 5 5 6 8 5 3 1 2 4 5 7 11 7 8 10 10 10 15 20 18 19 13 13 15 11 3 6 14 16 14 14 12 13 12 10 8 6
18 15 15 16 12 9 4 4 4 2 9 15 15 10 7 5 4 8 11 10 9 12 14 5 17 19 15 11 16 17 16 16 14 5 5 15 19 17 14 16 15 13 11 10 8
18 17 16 14 13 10 9 10 2 3 7 10 15 11 10 15 11 14 17 9 10 14 16 19 8 8 16 11 12 16 18 15 17 4 11 14 22 23 21 11 7 9 9 9 11
20 18 15 14 10 7 6 10 4 2 6 9 8 5 6 7 10 15 25 7 9 15 16 18 19 9 12 15 13 17 16 16 15 8 10 3 12 10 12 14 14 13 12 12 11
21 20 16 20 8 9 4 7 12 3 5 2 6 2 4 14 4 4 8 5 17 10 8 7 8 14 16 16 15 10 2 8 11 13 16 19 9 7 4 13 19 17 15 14 13
22 22 17 23 14 9 10 11 11 3 8 4 4 6 6 13 2 3 8 4 1 16 17 16 4 8 9 2 12 10 7 3 3 7 12 16 16 13 11 11 14 17 17 17 16
20 22 22 19 5 16 17 8 5 5 3 7 5 7 14 11 9 8 13 14 13 9 20 18 18 6 5 7 3 13 8 4 5 6 9 2 13 16 6 5 11 21 20 20 19
17 19 23 25 20 22 15 5 8 10 16 4 4 7 10 9 8 10 9 15 22 18 11 15 10 23 17 24 14 20 18 8 6 7 5 1 9 6 5 5 6 17 19 19 19
13 18 19 21 22 28 5 10 5 9 7 7 6 8 10 9 6 12 15 15 15 24 13 11 13 4 10 16 21 12 16 9 2 1 4 7 11 3 6 7 12 18 19 19 20
14 11 20 21 21 18 8 16 8 12 1 10 15 14 14 14 12 12 11 10 20 19 20 6 9 4 6 4 10 11 11 6 4 6 7 8 12 9 10 14 15 20 21 20 19
10 4 4 28 24 4 11 11 8 14 9 9 13 15 17 11 16 10 9 9 14 8 18 11 8 3 6 14 17 8 13 9 6 8 3 4 5 4 10 18 21 20 21 21 20
4 6 15 31 9 4 16 14 3 7 15 8 4 10 15 16 12 11 14 16 9 9 12 19 4 10 13 2 11 21 14 20 6 6 6 3 7 4 4 12 16 18 18 18 19
4 3 15 12 10 15 18 15 20 11 8 8 11 10 10 7 6 10 12 6 10 12 13 11 5 3 2 5 4 9 18 17 18 1 12 6 6 1 3 7 13 16 18 18 19
2 4 4 3 5 19 16 18 20 13 18 13 7 11 12 14 12 6 11 8 10 14 14 11 5 7 13 2 7 9 17 21 18 9 20 17 12 4 7 10 13 15 18 19 20
3 4 2 4 15 14 10 2 7 6 13 16 7 19 13 8 16 17 22 6 3 6 5 12 8 12 23 6 3 5 12 21 24 30 15 26 20 12 13 14 17 16 16 19 21
2 1 2 3 1 9 19 17 18 8 4 5 9 7 17 20 14 8 16 10 8 7 9 5 7 10 18 17 10 8 13 16 26 28 27 27 19 3 13 11 14 16 17 19 21
5 2 1 2 5 4 4 10 8 11 2 4 10 11 14 10 4 5 3 4 1 7 13 9 8 7 8 5 3 6 25 18 21 25 19 24 21 5 3 7 9 12 16 19 21
Wind_Direction
323 335 331 346 343 344 343 338 340 342 346 347 348 345 339 334 328 323 279 223 180 189 166 176 197 182 211 98 3 300 244 226 199 201 209 155 195 159 95 250 123 59 32 32 5
281 292 299 310 312 319 320 322 325 328 332 338 341 341 337 333 319 274 267 215 196 162 196 212 201 195 166 142 199 259 258 221 1 201 218 169 228 170 220 199 183 148 103 29 22
279 287 294 297 305 305 310 312 314 317 323 331 335 337 336 333 286 75 189 180 160 153 253 218 157 236 220 229 184 179 269 104 180 199 276 204 223 213 247 244 327 247 98 46 54
281 288 293 297 302 306 305 308 313 318 319 326 333 335 333 322 318 112 165 166 162 145 159 173 216 235 262 239 176 251 240 245 144 187 209 225 275 235 242 60 60 56 64 81 72
275 282 290 296 302 306 309 311 316 321 320 320 329 338 341 261 274 219 171 175 169 161 210 225 246 261 255 258 227 242 217 217 207 202 230 275 247 260 222 146 118 102 98 85 65
273 279 285 291 300 304 308 314 316 318 321 322 323 333 283 264 295 207 196 178 187 203 206 220 284 269 292 255 250 14 277 251 222 226 227 232 247 203 180 157 158 153 122 88 56
271 274 280 288 295 299 302 306 308 312 316 317 316 322 257 262 210 201 190 188 205 225 225 218 234 222 154 226 221 283 277 257 239 230 234 216 239 229 139 166 164 162 148 108 66
273 274 277 281 288 294 300 302 301 306 313 317 310 278 260 238 204 206 180 147 150 148 150 160 176 150 276 118 206 254 255 262 106 170 176 200 263 154 167 181 188 182 171 156 81
272 276 279 280 285 289 295 300 299 298 300 309 310 262 262 258 202 201 185 174 139 118 98 134 180 224 174 224 247 214 263 232 256 199 155 203 249 160 182 199 204 203 194 181 151
262 273 275 279 281 286 296 301 292 289 279 234 242 246 195 219 164 165 173 165 152 147 140 187 202 221 222 211 235 249 226 252 251 174 217 212 249 164 191 211 216 205 198 194 180
261 268 265 268 273 281 309 308 235 200 207 221 178 240 159 84 132 181 163 164 146 198 207 203 216 219 225 224 251 281 283 262 257 155 259 240 252 249 195 211 216 210 205 196 176
257 253 260 263 252 258 273 260 331 355 290 238 246 248 229 191 184 181 167 184 196 209 205 183 229 238 243 271 239 247 259 258 260 233 243 265 263 256 217 217 220 217 208 193 170
254 254 250 257 237 228 228 237 281 333 264 250 220 222 210 187 217 189 181 198 213 218 201 224 232 219 223 229 226 236 243 254 260 266 243 274 269 255 239 212 222 229 210 185 181
251 252 246 245 179 197 221 244 211 335 275 251 203 229 164 184 231 207 197 183 206 225 211 248 249 207 204 227 216 246 236 248 262 258 262 171 286 281 199 210 216 204 193 184 169
244 243 237 234 181 183 174 199 189 64 252 356 123 94 170 186 73 154 200 201 227 197 180 224 190 200 218 218 201 249 85 220 238 255 274 256 264 276 170 215 211 200 190 181 171
244 236 224 234 199 210 205 148 127 179 238 202 134 166 158 201 155 114 181 235 307 244 226 266 7 223 224 125 196 129 111 110 235 260 256 240 234 265 205 230 200 188 185 172 167
250 235 217 223 206 199 176 137 194 197 202 177 184 187 203 186 203 194 185 196 199 197 231 231 228 195 184 145 152 199 179 232 238 209 255 235 221 251 180 185 190 182 181 174 166
253 238 230 226 228 200 163 224 231 212 219 99 159 170 196 182 220 200 196 219 218 228 280 218 232 201 195 215 200 201 196 198 237 215 249 67 232 235 42 95 176 175 176 173 170
246 236 228 221 219 188 217 233 225 228 184 178 151 198 200 207 251 202 224 227 221 214 214 214 239 259 182 218 212 190 222 231 18 180 283 219 241 197 164 168 168 168 173 177 175
223 225 234 215 208 190 211 240 224 222 217 184 219 201 212 199 187 194 204 222 227 214 220 265 266 178 166 184 240 208 156 166 196 215 233 244 251 232 204 192 180 179 182 179 176
223 231 240 194 178 213 232 231 234 229 207 216 235 246 236 218 206 191 238 238 204 216 196 230 243 132 153 205 187 179 202 217 207 227 248 273 239 141 203 190 187 186 185 180 178
225 223 162 162 195 217 230 238 171 202 220 211 238 259 246 219 213 211 225 231 163 147 191 212 223 226 212 118 248 219 209 205 206 188 231 288 257 122 97 178 185 188 183 181 181
229 207 185 183 215 218 232 245 230 219 202 185 208 207 212 220 214 216 225 255 160 173 185 168 202 182 237 229 211 225 219 222 227 326 224 200 247 92 143 173 181 183 182 183 180
255 224 187 223 247 223 229 230 238 220 226 212 212 209 226 232 206 213 234 222 197 198 140 161 186 225 227 157 147 202 207 209 214 225 238 234 245 195 207 183 178 183 182 182 183
219 214 334 219 236 248 234 141 223 215 215 201 209 204 202 220 232 228 233 185 199 201 172 176 220 210 246 251 80 277 228 208 210 226 216 247 235 224 203 195 191 181 178 184 188
243 229 147 295 255 240 222 240 229 219 168 260 225 180 234 237 224 210 221 206 202 174 182 191 226 218 244 245 227 232 247 230 221 230 233 244 248 54 184 184 172 178 183 192 194
178 186 289 199 224 208 224 226 227 222 214 264 273 242 226 241 182 157 80 5 54 178 191 180 205 186 239 210 149 251 229 228 230 227 233 235 242 119 119 174 199 185 191 197 200